Weather History for KEYW - August, 2013

Change the Weather History Date:

Wednesday, August 21, 2013

  Actual Average Record
Temperature  
Mean Temperature 83 °F 84 °F  
Max Temperature 88 °F 89 °F 94 °F (1956)
Min Temperature 77 °F 80 °F 71 °F (1923)
Degree Days  
Heating Degree Days 0 0  
Month to date heating degree days 0 0  
Since 1 June heating degree days 0 0  
Since 1 July heating degree days 0 0  
Cooling Degree Days 18 19  
Month to date cooling degree days 395 416  
Year to date cooling degree days 3138 3001  
Since 1 June cooling degree days 1509 1571  
Growing Degree Days 32 (Base 50)    
Moisture  
Dew Point 76 °F    
Average Humidity 80    
Maximum Humidity 91    
Minimum Humidity 68    
Precipitation  
Precipitation 0.38 in 0.17 in 1.92 in (1945)
Month to date precipitation 4.04 3.41  
Year to date precipitation 35.17 21.70  
Snow  
Snow 0.00 in - - ()
Month to date snowfall 0.0  
Since 1 June snowfall 0.0  
Since 1 July snowfall 0.0  
Snow Depth 0.00 in    
Sea Level Pressure  
Sea Level Pressure 30.01 in    
Wind  
Wind Speed 10 mph (East)    
Max Wind Speed 29 mph    
Max Gust Speed 36 mph    
Visibility 9 miles    
Events Rain , Thunderstorm    
T = Trace of Precipitation, MM = Missing Value Source: NWS Daily Summary

Daily Weather History Graph

Daily Weather History Graph

Search for Another Location

Airport or City:

Trip Planner

Search our weather history database for the weather conditions in past years. The results will help you decide how hot, cold, wet, or windy it might be!

Date:

Astronomy

Aug. 21, 2013 Rise Set
Actual Time 7:04 AM EDT 7:55 PM EDT
Civil Twilight 6:40 AM EDT 8:19 PM EDT
Nautical Twilight 6:12 AM EDT 8:46 PM EDT
Astronomical Twilight 5:44 AM EDT 9:14 PM EDT
Moon 8:17 PM EDT (8/21) 7:32 AM EDT (8/21)
Length of Visible Light 13h 38m
Length of Day
12h 51m
Full, 100% of the Moon is Illuminated
Aug 21
Full
Aug 28
Last Quarter
Sep 5
New
Sep 12
First Quarter
Sep 19
Full

Hourly Weather History & Observations

Time (EDT) Temp. Heat Index Dew Point Humidity Pressure Visibility Wind Dir Wind Speed Gust Speed Precip Events Conditions
12:53 AM 81.0 °F 87.9 °F 77.0 °F 88% 30.04 in 10.0 mi ENE 4.6 mph - N/A   Clear
1:53 AM 81.0 °F 86.7 °F 75.0 °F 82% 30.03 in 10.0 mi ENE 3.5 mph - N/A   Partly Cloudy
2:53 AM 81.0 °F 87.3 °F 75.9 °F 85% 30.00 in 10.0 mi East 6.9 mph - N/A   Partly Cloudy
3:53 AM 82.0 °F 89.4 °F 75.9 °F 82% 29.99 in 10.0 mi East 5.8 mph - N/A   Partly Cloudy
4:53 AM 81.0 °F 86.7 °F 75.0 °F 82% 29.99 in 10.0 mi East 8.1 mph - N/A   Partly Cloudy
5:53 AM 81.0 °F 86.7 °F 75.0 °F 82% 30.00 in 10.0 mi East 5.8 mph - N/A   Clear
6:53 AM 81.0 °F 86.2 °F 73.9 °F 79% 30.01 in 10.0 mi ENE 4.6 mph - N/A   Clear
7:53 AM 80.1 °F 85.1 °F 75.0 °F 85% 30.02 in 10.0 mi Calm Calm - N/A   Clear
8:53 AM 82.0 °F 90.2 °F 77.0 °F 85% 30.04 in 10.0 mi NE 5.8 mph - 0.01 in   Partly Cloudy
9:53 AM 82.0 °F 88.6 °F 75.0 °F 79% 30.05 in 10.0 mi ENE 5.8 mph - N/A   Clear
10:53 AM 80.1 °F 85.4 °F 75.9 °F 87% 30.05 in 3.0 mi Calm Calm - 0.08 in Rain Rain
11:53 AM 84.9 °F 96.6 °F 78.1 °F 80% 30.04 in 10.0 mi East 10.4 mph - 0.02 in   Clear
12:53 PM 87.1 °F 98.8 °F 77.0 °F 72% 30.04 in 10.0 mi East 15.0 mph 21.9 mph N/A   Clear
1:53 PM 87.1 °F 98.8 °F 77.0 °F 72% 30.03 in 10.0 mi East 13.8 mph - N/A   Partly Cloudy
2:53 PM 87.1 °F 99.8 °F 78.1 °F 74% 30.01 in 10.0 mi East 15.0 mph - N/A   Partly Cloudy
3:53 PM 87.1 °F 97.3 °F 75.9 °F 69% 29.99 in 10.0 mi East 17.3 mph - N/A   Clear
4:53 PM 87.1 °F 98.8 °F 77.0 °F 72% 29.97 in 10.0 mi East 17.3 mph 21.9 mph N/A   Clear
5:53 PM 86.0 °F 96.0 °F 75.9 °F 72% 29.96 in 10.0 mi East 17.3 mph 20.7 mph N/A   Clear
6:53 PM 82.0 °F 87.9 °F 73.9 °F 76% 29.97 in 8.0 mi ESE 11.5 mph - 0.00 in Rain Light Rain
7:53 PM 84.0 °F 93.7 °F 77.0 °F 79% 29.99 in 10.0 mi ESE 12.7 mph - 0.00 in   Partly Cloudy
8:11 PM 78.8 °F - 73.4 °F 83% 30.00 in 2.5 mi East 10.4 mph 34.5 mph 0.02 in Rain Heavy Rain
8:20 PM 80.6 °F 85.4 °F 73.4 °F 79% 29.99 in 3.0 mi East 10.4 mph 25.3 mph 0.14 in Rain Heavy Rain
8:53 PM 82.9 °F 92.8 °F 78.1 °F 85% 30.01 in 10.0 mi ESE 13.8 mph 21.9 mph 0.15 in   Partly Cloudy
9:53 PM 82.9 °F 91.8 °F 77.0 °F 82% 30.01 in 10.0 mi ESE 17.3 mph 24.2 mph N/A   Partly Cloudy
10:11 PM 80.6 °F 86.2 °F 75.2 °F 84% 30.01 in 10.0 mi SE 16.1 mph 27.6 mph N/A   Mostly Cloudy
10:18 PM 82.4 °F 88.2 °F 73.4 °F 74% 30.02 in 10.0 mi ESE 15.0 mph - N/A   Scattered Clouds
10:53 PM 77.0 °F - 73.9 °F 90% 30.03 in 2.0 mi ESE 16.1 mph 28.8 mph 0.09 in Rain Heavy Rain
11:03 PM 77.0 °F - 75.2 °F 94% 30.02 in 6.0 mi East 10.4 mph - 0.03 in Rain Light Rain
11:22 PM 78.8 °F - 75.2 °F 89% 30.04 in 10.0 mi East 8.1 mph - 0.03 in Rain , Thunderstorm Light Rain
11:37 PM 78.8 °F - 75.2 °F 89% 30.03 in 10.0 mi ENE 6.9 mph - 0.03 in   Partly Cloudy
11:53 PM 79.0 °F - 77.0 °F 94% 30.03 in 9.0 mi ENE 6.9 mph - 0.03 in   Clear